Weather History for Estherville, IA

Change the Weather History Date:

Saturday, October 6, 2012

  Actual Average Record
Temperature  
Mean Temperature 33 °F 52 °F  
Max Temperature 44 °F 65 °F 89 °F (1963)
Min Temperature 21 °F 40 °F 21 °F (2012)
Degree Days  
Heating Degree Days 32 13  
Month to date heating degree days 107 74  
Since 1 July heating degree days 304 282  
Cooling Degree Days 0 0  
Month to date cooling degree days 0 4  
Year to date cooling degree days 886 591  
Moisture  
Dew Point 23 °F    
Average Humidity 61    
Maximum Humidity 78    
Minimum Humidity 43    
Precipitation  
Precipitation 0.00 in 0.09 in 1.61 in (1972)
Month to date precipitation 0.00 0.61  
Sea Level Pressure  
Sea Level Pressure 30.29 in    
Wind  
Wind Speed 11 mph (NW)    
Max Wind Speed 20 mph    
Max Gust Speed 25 mph    
Visibility 10 miles    
Events      
T = Trace of Precipitation, MM = Missing Value Source: NWS Daily Summary

Daily Weather History Graph

Daily Weather History Graph

Search for Another Location

Airport:

Trip Planner

Search our weather history database for the weather conditions in past years. The results will help you decide how hot, cold, wet, or windy it might be!

Date:

Astronomy

Oct. 06, 2012 Rise Set
Actual Time 7:22 AM CDT 6:50 PM CDT
Civil Twilight 6:54 AM CDT 7:18 PM CDT
Nautical Twilight 6:21 AM CDT 7:51 PM CDT
Astronomical Twilight 5:47 AM CDT 8:25 PM CDT
Moon 10:59 PM CDT (10/6) 1:25 PM CDT (10/6)
Length of Visible Light 12h 24m
Length of Day
11h 27m
Waning Gibbous, 65% of the Moon is Illuminated
Oct 6
Waning Gibbous
Oct 8
Last Quarter
Oct 15
New
Oct 21
First Quarter
Oct 29
Full

Hourly Weather History & Observations

Time (CDT) Temp. Windchill Dew Point Humidity Pressure Visibility Wind Dir Wind Speed Gust Speed Precip Events Conditions
12:52 AM 26.1 °F 16.8 °F 18.0 °F 71% 30.26 in 10.0 mi WNW 9.2 mph - N/A   Clear
1:52 AM 30.0 °F 21.7 °F 21.0 °F 69% 30.26 in 10.0 mi WNW 9.2 mph - N/A   Overcast
2:52 AM 30.9 °F 22.8 °F 21.0 °F 67% 30.25 in 10.0 mi WNW 9.2 mph - N/A   Mostly Cloudy
3:52 AM 30.9 °F 21.7 °F 24.1 °F 76% 30.25 in 10.0 mi NW 11.5 mph - N/A   Clear
4:52 AM 30.0 °F 21.1 °F 23.0 °F 75% 30.26 in 10.0 mi WNW 10.4 mph - N/A   Scattered Clouds
5:02 AM 30.2 °F 21.9 °F 23.0 °F 75% 30.23 in 10.0 mi WNW 9.2 mph - N/A   Mostly Cloudy
5:34 AM 28.4 °F 20.4 °F 23.0 °F 80% 30.23 in 10.0 mi NW 8.1 mph - N/A   Scattered Clouds
5:52 AM 30.9 °F 22.2 °F 23.0 °F 72% 30.27 in 10.0 mi NW 10.4 mph - N/A   Partly Cloudy
6:09 AM 32.0 °F 22.5 °F 24.8 °F 75% 30.24 in 10.0 mi NW 12.7 mph - N/A   Mostly Cloudy
7:52 AM 34.0 °F 25.0 °F 26.1 °F 73% 30.31 in 10.0 mi NNW 12.7 mph - N/A   Overcast
9:01 AM 35.6 °F 25.9 °F 26.6 °F 70% 30.29 in 10.0 mi NW 16.1 mph - N/A   Overcast
9:52 AM 37.0 °F 27.4 °F 26.1 °F 65% 30.34 in 9.0 mi NNW 17.3 mph - N/A   Overcast
10:03 AM 35.6 °F 25.2 °F 26.6 °F 70% 30.30 in 10.0 mi NNW 18.4 mph - N/A   Overcast
10:52 AM 37.9 °F 29.6 °F 27.0 °F 65% 30.35 in 10.0 mi NNW 13.8 mph - N/A   Overcast
11:14 AM 37.4 °F 28.9 °F 26.6 °F 65% 30.30 in 10.0 mi North 13.8 mph - N/A   Overcast
11:27 AM 37.4 °F 28.9 °F 26.6 °F 65% 30.30 in 10.0 mi North 13.8 mph - N/A   Overcast
11:52 AM 39.9 °F 32.5 °F 26.1 °F 58% 30.34 in 10.0 mi NNW 12.7 mph - N/A   Overcast
12:52 PM 39.9 °F 31.8 °F 25.0 °F 55% 30.34 in 10.0 mi NNW 15.0 mph 25.3 mph N/A   Overcast
1:52 PM 39.9 °F 31.4 °F 24.1 °F 53% 30.32 in 10.0 mi North 16.1 mph - N/A   Overcast
2:52 PM 41.0 °F 33.5 °F 23.0 °F 49% 30.31 in 10.0 mi NNW 13.8 mph - N/A   Overcast
3:52 PM 42.1 °F 36.1 °F 21.0 °F 43% 30.30 in 10.0 mi NW 10.4 mph 19.6 mph N/A   Overcast
4:52 PM 43.0 °F 36.4 °F 21.9 °F 43% 30.29 in 10.0 mi WNW 12.7 mph - N/A   Overcast
5:52 PM 41.0 °F 34.7 °F 21.0 °F 45% 30.29 in 10.0 mi NNW 10.4 mph - N/A   Mostly Cloudy
6:52 PM 39.0 °F 32.8 °F 21.0 °F 49% 30.30 in 10.0 mi North 9.2 mph - N/A   Overcast
7:52 PM 39.0 °F 34.0 °F 21.0 °F 49% 30.30 in 10.0 mi NNW 6.9 mph - N/A   Overcast
8:52 PM 36.0 °F 31.1 °F 21.9 °F 57% 30.32 in 10.0 mi North 5.8 mph - N/A   Scattered Clouds
9:52 PM 28.9 °F 23.9 °F 19.0 °F 67% 30.32 in 10.0 mi NW 4.6 mph - N/A   Clear
10:52 PM 26.1 °F 17.6 °F 18.0 °F 71% 30.32 in 10.0 mi WNW 8.1 mph - N/A   Clear
11:52 PM 24.1 °F 14.4 °F 16.0 °F 71% 30.31 in 10.0 mi WNW 9.2 mph - N/A   Clear